GW4027 Weather Reports


time (UTC)temp
C
wind
direction
speed
KPH
gust
KPH
rain 1hr
cm
rain 24hr
cm
rain mn
cm
humidity
%
barometer
mb
20260502233602 9 0 0.0 0.0 0.00 0.33 0.00 99 1007.9
20260502232724 9 0 0.0 0.0 0.00 0.33 0.00 98 1007.8
20260502231803 9 0 0.0 0.0 0.00 0.33 0.00 98 1007.9
20260502230903 9 0 0.0 0.0 0.00 0.33 0.00 98 1007.9
20260502230003 9 0 0.0 0.0 0.00 0.33 0.00 98 1007.9
20260502225402 9 0 0.0 0.0 0.00 0.33 0.33 98 1007.7
20260502224503 9 0 0.0 0.0 0.00 0.33 0.33 98 1007.8
20260502223602 9 194 0.0 1.6 0.00 0.33 0.33 98 1007.7
20260502222702 9 0 0.0 0.0 0.00 0.33 0.33 98 1007.7
20260502221824 9 0 0.0 0.0 0.00 0.33 0.33 98 1007.8
20260502220924 9 0 0.0 0.0 0.03 0.33 0.33 98 1007.9
20260502220002 10 183 0.0 1.6 0.03 0.33 0.33 98 1007.7
20260502215402 10 174 0.0 1.6 0.03 0.33 0.33 98 1007.9
20260502214502 10 0 0.0 0.0 0.05 0.33 0.33 98 1007.8
20260502213602 10 173 0.0 1.6 0.05 0.33 0.33 98 1007.9
20260502212703 10 205 0.0 4.8 0.08 0.33 0.33 98 1007.9
20260502211802 10 172 0.0 1.6 0.08 0.33 0.33 98 1007.8
20260502210903 10 194 0.0 3.2 0.05 0.30 0.30 98 1008.1
20260502210003 10 181 0.0 3.2 0.08 0.30 0.30 98 1008.1
20260502205424 10 176 0.0 3.2 0.08 0.30 0.30 98 1008.3
20260502204524 10 173 0.0 3.2 0.05 0.28 0.28 98 1008.0
20260502203603 10 193 0.0 3.2 0.08 0.28 0.28 98 1008.1
20260502202703 10 183 0.0 1.6 0.05 0.25 0.25 98 1008.1
20260502201803 10 210 0.0 1.6 0.08 0.25 0.25 98 1008.2
20260502200903 10 224 1.6 3.2 0.10 0.25 0.25 98 1008.1
20260502200024 10 203 1.6 3.2 0.08 0.23 0.23 97 1008.3
20260502194503 11 213 1.6 4.8 0.10 0.23 0.23 97 1008.4
20260502193603 11 214 1.6 4.8 0.10 0.20 0.20 96 1008.2
20260502192703 11 202 1.6 3.2 0.10 0.20 0.20 96 1008.4
20260502191803 11 194 0.0 3.2 0.08 0.18 0.18 95 1008.3
20260502190903 11 186 1.6 3.2 0.08 0.15 0.15 94 1008.4
20260502190003 11 210 0.0 1.6 0.08 0.15 0.15 93 1008.4
20260502185403 11 183 0.0 3.2 0.05 0.13 0.13 92 1008.5
20260502184503 11 214 0.0 1.6 0.05 0.13 0.13 92 1008.4
20260502183624 11 196 0.0 3.2 0.03 0.10 0.10 92 1008.4
20260502182703 11 170 0.0 1.6 0.03 0.10 0.10 92 1008.1
20260502181803 11 165 0.0 3.2 0.03 0.10 0.10 92 1008.0
20260502180903 11 168 0.0 3.2 0.00 0.08 0.08 92 1007.9
20260502163603 11 184 0.0 3.2 0.05 0.05 0.05 94 1008.3
20260502162703 11 210 1.6 3.2 0.05 0.05 0.05 94 1008.3
20260502161824 11 198 1.6 3.2 0.05 0.05 0.05 94 1008.3
20260502160903 11 189 1.6 4.8 0.05 0.05 0.05 94 1008.5
20260502151803 12 229 3.2 6.4 0.00 0.00 0.00 87 1009.1
20260502150903 13 194 1.6 6.4 0.00 0.00 0.00 84 1009.1
20260502123603 13 211 3.2 12.9 0.00 0.00 0.00 85 1010.4
20260502122703 13 165 3.2 12.9 0.00 0.00 0.00 84 1010.5
20260502121803 13 165 3.2 9.7 0.00 0.00 0.00 83 1010.7
20260502120903 13 190 3.2 9.7 0.00 0.00 0.00 83 1010.6
20260502115403 13 225 3.2 11.3 0.00 0.00 0.00 80 1010.7
20260502114524 13 238 1.6 4.8 0.00 0.00 0.00 79 1010.7
20260502113603 13 234 3.2 6.4 0.00 0.00 0.00 79 1010.7
20260502112703 14 220 1.6 6.4 0.00 0.00 0.00 78 1010.4
20260502111803 15 212 1.6 6.4 0.00 0.00 0.00 71 1010.6
20260502110903 15 180 1.6 3.2 0.00 0.00 0.00 71 1010.6
20260502110023 15 192 1.6 4.8 0.00 0.00 0.00 72 1010.6
20260502105402 15 205 3.2 6.4 0.00 0.00 0.00 72 1010.5
20260502104501 14 189 3.2 14.5 0.00 0.00 0.00 74 1010.7
20260502103601 14 180 1.6 6.4 0.00 0.00 0.00 75 1011.0
20260502102701 14 212 1.6 6.4 0.00 0.00 0.00 74 1010.7
20260502100901 14 208 1.6 11.3 0.00 0.00 0.00 78 1010.8
20260502090902 15 166 1.6 6.4 0.00 0.00 0.00 70 1011.1
20260502070902 12 157 1.6 9.7 0.00 0.00 0.00 79 1011.2
20260502070002 11 189 1.6 9.7 0.00 0.00 0.00 82 1011.2
20260502065423 11 193 0.0 6.4 0.00 0.00 0.00 83 1011.3
20260502064502 11 200 0.0 3.2 0.00 0.00 0.00 83 1011.6
20260502063602 11 195 0.0 3.2 0.00 0.00 0.00 84 1011.2
20260502062702 10 193 0.0 3.2 0.00 0.00 0.00 85 1011.3
20260502061823 10 167 1.6 4.8 0.00 0.00 0.00 85 1011.5
20260502060902 10 200 0.0 3.2 0.00 0.00 0.00 88 1011.6
20260502060002 10 168 0.0 3.2 0.00 0.00 0.00 90 1011.4
20260502055402 9 150 0.0 3.2 0.00 0.00 0.00 91 1011.4
20260502054523 8 153 0.0 1.6 0.00 0.00 0.00 92 1011.5
20260502053602 8 173 0.0 1.6 0.00 0.00 0.00 93 1011.5
20260502052702 8 165 0.0 1.6 0.00 0.00 0.00 93 1011.5
20260502051802 8 191 0.0 3.2 0.00 0.00 0.00 93 1011.4
20260502050902 8 0 0.0 0.0 0.00 0.00 0.00 92 1011.5
20260502050002 8 144 0.0 1.6 0.00 0.00 0.00 92 1011.5
20260502045402 8 102 0.0 1.6 0.00 0.00 0.00 92 1011.5
20260502044523 8 154 0.0 1.6 0.00 0.00 0.00 92 1011.6
20260502043602 8 153 0.0 3.2 0.00 0.00 0.00 92 1011.6
20260502042702 8 0 0.0 0.0 0.00 0.00 0.00 92 1011.7
20260502041802 8 0 0.0 0.0 0.00 0.00 0.00 92 1011.8
20260502040902 8 0 0.0 0.0 0.00 0.00 0.00 91 1011.6
20260502040023 8 0 0.0 0.0 0.00 0.00 0.00 91 1011.8
20260502035423 8 0 0.0 0.0 0.00 0.00 0.00 90 1011.8
20260502034502 9 0 0.0 0.0 0.00 0.00 0.00 89 1011.8
20260502033602 9 176 0.0 3.2 0.00 0.00 0.00 88 1011.9
20260502032702 10 170 0.0 3.2 0.00 0.00 0.00 88 1011.9
20260502031823 10 163 0.0 3.2 0.00 0.00 0.00 89 1012.1
20260502030902 10 103 0.0 1.6 0.00 0.00 0.00 89 1012.2
20260502030002 10 0 0.0 0.0 0.00 0.00 0.00 88 1012.3
20260502025402 10 183 0.0 1.6 0.00 0.00 0.00 88 1012.4
20260502024502 10 183 0.0 4.8 0.00 0.00 0.00 88 1012.4
20260502023623 10 181 0.0 4.8 0.00 0.00 0.00 88 1012.5
20260502022702 10 187 0.0 6.4 0.00 0.00 0.00 88 1012.5
20260502021802 10 171 1.6 6.4 0.00 0.00 0.00 89 1012.6
20260502020902 10 165 1.6 4.8 0.00 0.00 0.00 89 1012.4
20260502020002 10 159 1.6 4.8 0.00 0.00 0.00 89 1012.7
20260502015402 10 164 1.6 4.8 0.00 0.00 0.00 89 1012.5
20260502014502 10 156 0.0 4.8 0.00 0.00 0.00 88 1012.9
20260502013602 10 161 0.0 3.2 0.00 0.00 0.00 88 1012.9
20260502012702 10 154 0.0 3.2 0.00 0.00 0.00 88 1012.9
20260502011823 10 161 0.0 3.2 0.00 0.00 0.00 86 1013.1
20260502010923 11 167 1.6 4.8 0.00 0.00 0.00 85 1013.0
20260502010002 11 151 0.0 3.2 0.00 0.00 0.00 84 1013.0
20260502005402 11 144 0.0 3.2 0.00 0.00 0.00 85 1013.2
20260502004502 10 174 0.0 4.8 0.00 0.00 0.00 87 1013.1
20260502003602 10 175 1.6 4.8 0.00 0.00 0.00 87 1013.1
20260502002702 10 120 0.0 3.2 0.00 0.00 0.00 87 1013.2
20260502001802 10 146 0.0 1.6 0.00 0.00 0.00 87 1013.3
20260502000923 11 13 0.0 3.2 0.00 0.00 0.00 87 1013.2
20260502000002 10 165 0.0 1.6 0.00 0.00 0.00 87 1013.3
20260501235402 11 214 0.0 1.6 0.00 0.00 0.00 87 1013.4
20260501234523 11 228 1.6 3.2 0.00 0.00 0.00 87 1013.4